Weather History for MMMZ - November, 2011

Change the Weather History Date:

Friday, November 11, 2011

  Actual Average Record
Temperature  
Mean Temperature 68 °F -  
Max Temperature 82 °F 85 °F 91 °F (2003)
Min Temperature 55 °F 63 °F 55 °F (2010)
Cooling Degree Days 4    
Growing Degree Days 18 (Base 50)    
Moisture  
Dew Point 60 °F    
Average Humidity 76    
Maximum Humidity 88    
Minimum Humidity 54    
Precipitation  
Precipitation 0.00 in - - ()
Sea Level Pressure  
Sea Level Pressure 29.93 in    
Wind  
Wind Speed 7 mph ()    
Max Wind Speed 10 mph    
Max Gust Speed -    
Visibility 11.2 miles    
Events      
Averages and records for this station are not official NWS values.
T = Trace of Precipitation, MM = Missing Value Source: Averaged Metar Reports

Daily Weather History Graph

Daily Weather History Graph

Search for Another Location

Airport or City:

Trip Planner

Search our weather history database for the weather conditions in past years. The results will help you decide how hot, cold, wet, or windy it might be!

Date:

Astronomy

Nov. 11, 2011 Rise Set
Actual Time 6:16 AM MST 5:21 PM MST
Civil Twilight 5:52 AM MST 5:45 PM MST
Nautical Twilight 5:25 AM MST 6:12 PM MST
Astronomical Twilight 4:58 AM MST 6:39 PM MST
Moon 6:03 PM MST (11/11) 6:57 AM MST (11/11)
Length of Visible Light 11h 52m
Length of Day
11h 05m
Full, 99% of the Moon is Illuminated
Nov 11
Full
Nov 18
Last Quarter
Nov 24
New
Dec 2
First Quarter
Dec 10
Full

Hourly Weather History & Observations

Time (MST) Temp. Heat Index Dew Point Humidity Pressure Visibility Wind Dir Wind Speed Gust Speed Precip Events Conditions
1:09 AM 57.2 °F - 53.6 °F 88% 29.90 in 10.0 mi North 8.1 mph - N/A   Clear
1:51 AM 57.2 °F - 53.6 °F 88% 29.89 in 10.0 mi NNE 6.9 mph - N/A   Clear
2:50 AM 57.2 °F - 53.6 °F 88% 29.89 in 10.0 mi North 8.1 mph - N/A   Clear
3:42 AM 55.4 °F - 51.8 °F 88% 29.89 in 10.0 mi NNE 8.1 mph - N/A   Clear
4:46 AM 55.4 °F - 51.8 °F 88% 29.90 in 10.0 mi NNE 9.2 mph - N/A   Clear
5:46 AM 55.4 °F - 51.8 °F 88% 29.91 in 12.0 mi NNE 6.9 mph - N/A   Clear
6:41 AM 55.4 °F - 51.8 °F 88% 29.94 in 12.0 mi NNE 8.1 mph - N/A   Clear
7:41 AM 62.6 °F - 55.4 °F 77% 29.94 in 12.0 mi NNE 8.1 mph - N/A   Clear
8:41 AM 71.6 °F - 62.6 °F 73% 29.96 in 12.0 mi ENE 6.9 mph - N/A   Scattered Clouds
9:44 AM 78.8 °F - 68.0 °F 69% 29.97 in 12.0 mi SE 8.1 mph - N/A   Clear
10:41 AM 80.6 °F 82.7 °F 66.2 °F 61% 29.99 in 12.0 mi SE 6.9 mph - N/A   Partly Cloudy
11:40 AM 82.4 °F 84.6 °F 66.2 °F 58% 29.94 in 12.0 mi SSE 10.4 mph - N/A   Partly Cloudy
12:43 PM 82.4 °F 83.9 °F 64.4 °F 54% 29.93 in 12.0 mi South 8.1 mph - N/A   Partly Cloudy
1:41 PM 82.4 °F 84.6 °F 66.2 °F 58% 29.91 in 12.0 mi South 10.4 mph - N/A   Partly Cloudy
2:41 PM 82.4 °F 83.9 °F 64.4 °F 54% 29.90 in 12.0 mi SW 9.2 mph - N/A   Clear
3:42 PM 78.8 °F - 64.4 °F 61% 29.90 in 12.0 mi SW 8.1 mph - N/A   Partly Cloudy
4:43 PM 77.0 °F - 66.2 °F 69% 29.91 in 15.0 mi WSW 6.9 mph - N/A   Scattered Clouds
5:40 PM 73.4 °F - 66.2 °F 78% 29.91 in 12.0 mi SW 6.9 mph - N/A   Mostly Cloudy
6:40 PM 71.6 °F - 64.4 °F 78% 29.93 in 10.0 mi NNE 4.6 mph - N/A   Scattered Clouds
7:40 PM 71.6 °F - 64.4 °F 78% 29.95 in 10.0 mi North 5.8 mph - N/A   Scattered Clouds
8:48 PM 69.8 °F - 62.6 °F 78% 29.96 in 10.0 mi North 5.8 mph - N/A   Partly Cloudy
9:48 PM 66.2 °F - 60.8 °F 83% 29.96 in 10.0 mi NNE 5.8 mph - N/A   Clear
10:53 PM 66.2 °F - 60.8 °F 83% 29.97 in 10.0 mi NE 5.8 mph - N/A   Clear
11:52 PM 64.4 °F - 60.8 °F 88% 29.95 in 10.0 mi NNE 5.8 mph - N/A   Clear